Weather History for Craig, CO

Change the Weather History Date:

Monday, January 21, 2013

  Actual Average Record
Temperature  
Mean Temperature 2 °F 16 °F  
Max Temperature 18 °F 30 °F 48 °F (2005)
Min Temperature -14 °F 3 °F -14 °F (2013)
Degree Days  
Heating Degree Days 63 49  
Month to date heating degree days 1367 1044  
Since 1 July heating degree days 4538 4600  
Cooling Degree Days 0 0  
Month to date cooling degree days 0 0  
Year to date cooling degree days 0 0  
Moisture  
Dew Point -9 °F    
Average Humidity 75    
Maximum Humidity 87    
Minimum Humidity 63    
Precipitation  
Precipitation 0.00 in 0.03 in 0.18 in (2000)
Month to date precipitation 0.26 0.57  
Year to date precipitation 0.26 0.57  
Sea Level Pressure  
Sea Level Pressure 30.68 in    
Wind  
Wind Speed 1 mph (SW)    
Max Wind Speed 6 mph    
Max Gust Speed 8 mph    
Visibility 10 miles    
Events      
T = Trace of Precipitation, MM = Missing Value Source: NWS Daily Summary

Daily Weather History Graph

Daily Weather History Graph

Search for Another Location

Airport:

Trip Planner

Search our weather history database for the weather conditions in past years. The results will help you decide how hot, cold, wet, or windy it might be!

Date:

Astronomy

Jan. 21, 2013 Rise Set
Actual Time 7:28 AM MST 5:15 PM MST
Civil Twilight 6:58 AM MST 5:44 PM MST
Nautical Twilight 6:25 AM MST 6:18 PM MST
Astronomical Twilight 5:52 AM MST 6:50 PM MST
Moon 12:57 PM MST (1/21) 2:59 AM MST (1/21)
Length of Visible Light 10h 46m
Length of Day
9h 47m
Waxing Gibbous, 75% of the Moon is Illuminated
Jan 21
Waxing Gibbous
Jan 26
Full
Feb 3
Last Quarter
Feb 10
New
Feb 17
First Quarter

Hourly Weather History & Observations

Time (MST) Temp. Windchill Dew Point Humidity Pressure Visibility Wind Dir Wind Speed Gust Speed Precip Events Conditions
12:53 AM -9.9 °F - -14.1 °F 82% 30.71 in 10.0 mi Calm Calm - N/A   Clear
1:53 AM -9.9 °F - -16.1 °F 74% 30.69 in 10.0 mi Calm Calm - N/A   Clear
2:53 AM -11.0 °F - -17.0 °F 75% 30.69 in 10.0 mi Calm Calm - N/A   Clear
3:53 AM -13.0 °F - -20.0 °F 71% 30.70 in 10.0 mi Calm Calm - N/A   Clear
4:53 AM -13.0 °F - -18.0 °F 78% 30.73 in 10.0 mi Calm Calm - N/A   Clear
5:53 AM -11.9 °F - -18.9 °F 71% 30.77 in 10.0 mi Calm Calm - N/A   Clear
6:17 AM -9.4 °F - -14.8 °F 77% 30.37 in 10.0 mi Calm Calm - N/A   Scattered Clouds
6:25 AM -11.2 °F - -16.6 °F 77% 30.37 in 10.0 mi Calm Calm - N/A   Mostly Cloudy
6:53 AM -14.1 °F - -20.0 °F 75% 30.81 in 10.0 mi Calm Calm - N/A   Overcast
7:23 AM -9.4 °F - -16.6 °F 71% 30.37 in 10.0 mi Calm Calm - N/A   Scattered Clouds
7:41 AM -11.2 °F - -18.4 °F 70% 30.38 in 10.0 mi Calm Calm - N/A   Mostly Cloudy
7:53 AM -13.0 °F - -18.0 °F 78% 30.83 in 10.0 mi Calm Calm - N/A   Mostly Cloudy
8:10 AM -9.4 °F - -14.8 °F 77% 30.38 in 10.0 mi Calm Calm - N/A   Scattered Clouds
8:53 AM -8.0 °F - -11.9 °F 83% 30.82 in 10.0 mi Calm Calm - N/A   Clear
9:53 AM -2.0 °F - -5.1 °F 87% 30.81 in 10.0 mi Calm Calm - N/A   Clear
10:53 AM 3.9 °F - -2.0 °F 76% 30.78 in 10.0 mi Calm Calm - N/A   Clear
11:53 AM 10.0 °F - -0.0 °F 64% 30.72 in 10.0 mi Calm Calm - N/A   Clear
12:53 PM 12.9 °F 5.2 °F 5.0 °F 71% 30.69 in 10.0 mi SW 4.6 mph - N/A   Clear
1:53 PM 16.0 °F 10.4 °F 7.0 °F 68% 30.66 in 10.0 mi SSW 3.5 mph - N/A   Clear
2:53 PM 18.0 °F - 8.1 °F 65% 30.63 in 10.0 mi Calm Calm - N/A   Clear
3:53 PM 17.1 °F - 8.1 °F 68% 30.65 in 10.0 mi Calm Calm - N/A   Clear
4:53 PM 10.9 °F 4.7 °F 3.9 °F 73% 30.68 in 10.0 mi SSW 3.5 mph - N/A   Clear
5:53 PM 3.9 °F -3.4 °F -0.9 °F 80% 30.70 in 10.0 mi SW 3.5 mph - N/A   Clear
6:53 PM 3.0 °F -4.4 °F -2.9 °F 76% 30.74 in 10.0 mi NNE 3.5 mph - N/A   Clear
7:53 PM -0.0 °F - -5.1 °F 79% 30.74 in 10.0 mi Calm Calm - N/A   Clear
8:53 PM -4.0 °F - -8.0 °F 83% 30.74 in 10.0 mi Calm Calm - N/A   Clear
9:53 PM -7.1 °F - -11.0 °F 83% 30.73 in 10.0 mi Calm Calm - N/A   Clear
10:53 PM -9.0 °F - -13.0 °F 83% 30.72 in 10.0 mi Calm Calm - N/A   Clear
11:53 PM -8.0 °F - -14.1 °F 75% 30.69 in 10.0 mi Calm Calm - N/A   Clear